Regional Weather Roundup
Issued by NWS

Home | Current Version | Previous Version | Text Only | Print | Product List | Glossary On
Versions: 1 2 3 4 5 6 7 8 9 10 11 12 13 14 15 16 17 18 19 20 21 22 23 24 25 26 27 28 29 30 31 32 33 34 35 36 37 38 39 40 41 42 43 44 45 46 47 48 49 50
000
ASUS46 KSEW 310810
RWRWA

WASHINGTON REGIONAL WEATHER ROUNDUP
NATIONAL WEATHER SERVICE SEATTLE WA
100 AM PDT FRI JUL 31 2015

NOTE:"FAIR" INDICATES FEW OR NO CLOUDS BELOW 12,000 FEET WITH NO
SIGNIFICANT WEATHER AND/OR OBSTRUCTIONS TO VISIBILITY.

WAZ505-507>509-310900-
SEATTLE, TACOMA, EVERETT, AND VICINITY

CITY           SKY/WX    TMP DP  RH WIND       PRES   REMARKS
EVERETT        CLEAR     70  44  39 N5        30.07S
BOEING FIELD   CLEAR     76  48  37 NE5       30.04R
RENTON         CLEAR     73  54  51 N5        30.04R
SEATAC AIRPORT CLEAR     75  49  39 N9        30.05S
JBLM-MCCHORD   CLEAR     59  49  68 S1        30.04S
PUYALLUP       FAIR      59  52  77 CALM      30.06R
BREMERTON      CLEAR     66  48  52 N3        30.08R
JBLM-FT LEWIS  CLEAR     65  42  42 SE3       30.04R
TACOMA NARROWS CLEAR     73  47  39 N6        30.04S
$$

WAZ001-503-506-510-514-515-310900-
NORTH INTERIOR

CITY           SKY/WX    TMP DP  RH WIND       PRES   REMARKS
BELLINGHAM     CLEAR     64  57  78 SE3       30.04S
FRIDAY HARBOR  CLEAR     54  50  86 CALM      30.05R
EASTSOUND      CLEAR     63  52  67 CALM      30.02S
PORT ANGELES   CLEAR     65  50  58 W7        30.05F
PORT TOWNSEND  FAIR      59  48  67 SE5       30.04R
NAS WHIDBEY    CLEAR     57  51  80 CALM      30.09S
ARLINGTON      CLEAR     61  46  59 CALM      30.07S
BURLINGTON     CLEAR     61  52  72 CALM      30.05S
$$

WAZ020-022-039-040-504-511-512-310900-
SOUTHWEST INTERIOR

CITY           SKY/WX    TMP DP  RH WIND       PRES   REMARKS
SHELTON        CLEAR     61  47  59 CALM      30.03R
OLYMPIA        CLEAR     59  49  69 CALM      30.04S
CHEHALIS       FAIR      63  54  72 CALM      30.04S
KELSO          CLEAR     68  48  49 N3        30.06S
VANCOUVER      CLEAR     79  47  32 VRB5      29.99S
SCAPPOOSE, OR  CLEAR     74  50  42 CALM      29.99S
PORTLAND, OR   CLEAR     78  51  38 NW3       30.00R
$$

WAZ021-516-517-310900-
WASHINGTON COAST

CITY           SKY/WX    TMP DP  RH WIND       PRES   REMARKS
FORKS          CLEAR     54  52  93 CALM      30.08S
HOQUIAM        CLEAR     62  54  74 CALM      30.06S
ASTORIA, OR    CLEAR     56  53  90 CALM      30.06S
$$

WAZ019-023-024-040-518-519-310900-
CASCADE MOUNTAINS AND COLUMBIA GORGE

CITY           SKY/WX    TMP DP  RH WIND       PRES   REMARKS
TROUTDALE, OR  CLEAR     71  54  54 CALM      29.99R
THE DALLES, OR CLEAR     82  46  28 W3        29.95R
$$

WAZ026-027-041>044-520-521-310900-
EAST SLOPES

CITY           SKY/WX    TMP DP  RH WIND       PRES   REMARKS
OMAK           CLEAR     68  36  30 NW7       30.02S
WENATCHEE      CLEAR     83  38  20 NW8       30.02S
ELLENSBURG     CLEAR     69  41  36 W6        30.07R
YAKIMA         CLEAR     67  46  47 W9        30.03R
$$

WAZ028-034-035-310900-
COLUMBIA BASIN

CITY           SKY/WX    TMP DP  RH WIND       PRES   REMARKS
EPHRATA        CLEAR     74  34  23 NW3       30.01S
MOSES LAKE     CLEAR     71  40  32 CALM      30.02R
PASCO          CLEAR     65  57  75 CALM      29.97R
HERMISTON, OR  PTCLDY    68  42  38 CALM      29.97R
$$

WAZ036>038-310900-
NORTHEAST WASHINGTON

CITY           SKY/WX    TMP DP  RH WIND       PRES   REMARKS
SPOKANE GEIGER PTCLDY    73  30  20 SE7       30.10S
SPOKANE FELTS  CLEAR     64  41  42 NE3       30.09R
FAIRCHILD AFB  CLEAR     73  27  18 SW2       30.10S
COEURDALENE,ID CLEAR     61  43  51 E7        30.10S
DEER PARK      CLEAR     54  34  46 NW5       30.09S
$$

WAZ029>033-310900-
SOUTHEAST WASHINGTON

CITY           SKY/WX    TMP DP  RH WIND       PRES   REMARKS
PULLMAN        CLEAR     56  30  37 CALM      30.13S
LEWISTON, ID   CLEAR     74  31  20 S5        30.04S
WALLA WALLA    PTCLDY    76  31  19 E9        30.00S
PENDLETON, OR  PTCLDY    73  31  21 E9        30.02S
$$


USA.gov is the U.S. government's official web portal to all federal, state and local government web resources and services.